sat.trackr.live / text

‹ back to catalog

STARLINK-3922

NORAD 52584 · 2022-051BA

PAYLOAD ACTIVE UNKNOWN

§ Identity

Operator
Country
US
Launch date
2022-05-13
Launch site
AFWTR
Launch vehicle
Mass (kg)
RCS (m²)

Purposes: comms

External: N2YO · Heavens-Above · Gunter

§ Orbital elements

Epoch: 2026-05-25T02:51:15.337728Z

Period
95.44 min
Inclination
53.2154°
Eccentricity
0.0001425
Mean motion
15.08842517 rev/d
Perigee alt
538.7 km
Apogee alt
540.7 km
Semi-major
6,917.9 km
B*
-1.2712e-5
RAAN
136.0170°
Arg perigee
36.7287°
Mean anomaly
323.3802°
Rev number
22,312

§ Raw data

STARLINK-39221 52584U 22051BA  26145.11892752 -.00000490  00000+0 -12712-4 0  99982 52584  53.2154 136.0170 0001425  36.7287 323.3802 15.08842517223121

JSON: /api/v1/satellites/52584 · /tle

For live sub-satellite position, see the globe view (requires WebGL).

§ Visibility from observer

Set your observer location to see the next 7 days of passes ≥ 10°. The values pass through the URL so the page stays shareable.

No JS? Fill the form by hand. The geolocation button needs JavaScript.